Sexton Summit, OR

12:37 PM PDT on October 18, 2019 (GMT -0700)
Sexton Summit

Weather History for KSXT - August, 2019

Change the Weather History Date:

Saturday, August 3, 2019

  Actual Average Record
Temperature  
Mean Temperature 70 °F -  
Max Temperature 82 °F 75 °F 95 °F (2017)
Min Temperature 59 °F 52 °F 43 °F (1996)
Cooling Degree Days 6    
Growing Degree Days 20 (Base 50)    
Moisture  
Dew Point 56 °F    
Average Humidity 68    
Maximum Humidity 90    
Minimum Humidity 41    
Precipitation  
Precipitation 0.00 in - - ()
Sea Level Pressure  
Sea Level Pressure 29.98 in    
Wind  
Wind Speed 5 mph (North)    
Max Wind Speed 12 mph    
Max Gust Speed 20 mph    
Visibility 10 miles    
Events      
Averages and records for this station are not official NWS values.
T = Trace of Precipitation, MM = Missing Value Source: NWS Daily Summary

Daily Weather History Graph

Daily Weather History Graph

Search for Another Location

Airport or City:

Astronomy

Aug. 03, 2019 Rise Set
Actual Time 6:07 AM PDT 8:31 PM PDT
Civil Twilight 5:35 AM PDT 9:03 PM PDT
Nautical Twilight 4:56 AM PDT 9:42 PM PDT
Astronomical Twilight 4:11 AM PDT 10:26 PM PDT
Moon 9:10 AM PDT (8/3) 10:35 PM PDT (8/3)
Length of Visible Light 15h 27m
Length of Day
14h 24m
Waxing Crescent, 10% of the Moon is Illuminated
Aug 3
Waxing Crescent
Aug 7
First Quarter
Aug 15
Full
Aug 23
Last Quarter
Aug 30
New

Hourly Weather History & Observations

Time (PDT) Temp. Heat Index Dew Point Humidity Pressure Visibility Wind Dir Wind Speed Gust Speed Precip Events Conditions
12:56 AM 60.1 °F - 55.9 °F 86% 30.05 in 10.0 mi North 9.2 mph - N/A   Clear
1:56 AM 59.0 °F - 55.9 °F 90% 30.04 in 10.0 mi North 8.1 mph - N/A   Clear
2:56 AM 60.1 °F - 55.9 °F 86% 30.02 in 10.0 mi NNE 4.6 mph - N/A   Clear
3:56 AM 63.0 °F - 55.0 °F 75% 30.01 in 10.0 mi Calm Calm - N/A   Clear
4:56 AM 62.1 °F - 55.0 °F 78% 30.00 in 10.0 mi Calm Calm - N/A   Clear
5:56 AM 61.0 °F - 55.0 °F 81% 30.00 in 10.0 mi Calm Calm - N/A   Clear
6:56 AM 62.1 °F - 55.9 °F 80% 30.01 in 10.0 mi Calm Calm - N/A   Clear
7:56 AM 64.0 °F - 57.0 °F 78% 30.01 in 10.0 mi Calm Calm - N/A   Clear
8:56 AM 66.9 °F - 57.9 °F 73% 30.01 in 10.0 mi SE 3.5 mph - N/A   Clear
9:56 AM 70.0 °F - 59.0 °F 68% 30.00 in 10.0 mi Variable 3.5 mph - N/A   Clear
10:56 AM 71.1 °F - 60.1 °F 68% 29.99 in 10.0 mi Variable 3.5 mph - N/A   Clear
11:56 AM 72.0 °F - 60.1 °F 66% 29.99 in 10.0 mi Variable 5.8 mph - N/A   Clear
2:56 PM 82.0 °F 81.6 °F 55.9 °F 41% 29.94 in 10.0 mi Calm Calm - N/A   Clear
4:56 PM 81.0 °F 80.7 °F 55.0 °F 41% 29.92 in 10.0 mi Calm Calm - N/A   Clear
5:56 PM 79.0 °F - 55.0 °F 44% 29.92 in 10.0 mi North - - N/A   Clear
7:56 PM 72.0 °F - 55.0 °F 55% 29.93 in 10.0 mi Variable 5.8 mph - N/A   Clear
8:56 PM 70.0 °F - 55.0 °F 59% 29.93 in 10.0 mi North 6.9 mph 16.1 mph N/A   Clear
9:56 PM 69.1 °F - 55.0 °F 61% 29.94 in 10.0 mi North 11.5 mph 19.6 mph N/A   Clear
10:56 PM 66.9 °F - 55.0 °F 66% 29.94 in 10.0 mi NNW 10.4 mph - N/A   Clear
11:56 PM 64.9 °F - 55.0 °F 70% 29.95 in 10.0 mi North 9.2 mph - N/A   Clear